SCP
0 0 0 0 0 0 0 0 0 0 0 0 0 0 0 0 1 2 2 2 2 1 1 1 1 1 1 1 0 0 0 0 0 0 0 0 0 0 0 0 0 0 0 0
0 0 0 0 0 0 0 0 0 0 0 0 0 0 0 0 1 1 3 3 2 2 2 2 2 2 1 1 0 0 0 0 0 0 0 0 0 0 0 0 0 0 0 0
0 0 0 0 0 0 0 0 0 0 0 0 0 0 0 0 0 1 3 3 3 2 2 2 2 2 2 1 0 0 0 0 0 0 0 0 0 0 0 0 0 0 0 0
0 0 0 0 0 0 0 0 0 0 0 0 0 0 0 0 0 1 2 3 3 3 3 3 3 3 2 1 1 1 1 0 0 0 0 0 0 0 0 0 0 0 0 0
0 0 0 0 0 0 0 0 0 0 0 0 0 0 0 0 0 0 2 3 3 3 3 3 3 3 2 1 1 1 1 1 1 1 1 0 0 0 0 0 0 0 0 0
0 0 0 0 0 0 0 0 0 0 0 0 0 0 0 0 0 0 1 3 4 4 4 4 3 3 2 1 1 1 1 1 1 1 0 0 0 0 0 0 0 0 0 0
0 0 0 0 0 0 0 0 0 0 0 0 0 0 0 0 0 0 1 3 5 5 5 4 4 2 2 1 1 1 1 1 0 0 0 0 0 0 0 0 0 0 0 0
0 0 0 0 0 0 0 0 0 0 0 0 0 0 0 0 0 0 1 4 6 6 5 5 4 3 2 1 1 1 1 0 0 0 0 0 0 0 0 0 0 0 0 0
0 0 0 0 0 0 0 0 0 0 0 0 0 0 0 0 0 0 1 4 7 7 6 5 4 3 2 1 1 1 0 0 0 0 0 0 0 0 0 0 0 0 0 0
0 0 0 0 0 0 0 0 0 0 0 0 0 0 0 0 0 0 1 4 7 8 6 5 4 3 2 2 1 1 0 0 0 0 0 0 0 0 0 0 0 0 0 0
0 0 0 0 0 0 0 0 0 0 0 0 0 0 0 0 0 0 1 3 7 8 7 6 5 4 3 2 1 1 1 0 0 0 0 0 0 0 0 0 0 0 0 0
0 0 0 0 0 0 0 0 0 0 0 0 0 0 0 0 0 0 1 2 5 8 8 6 5 4 3 2 1 1 1 0 0 0 0 0 0 0 0 0 0 0 0 0
0 0 0 0 0 0 0 0 0 0 0 0 0 0 0 0 0 0 0 1 4 7 8 7 6 5 4 3 2 1 1 1 1 1 1 0 0 0 0 0 0 0 0 0
0 0 0 0 0 0 0 0 0 0 0 0 0 0 0 0 0 0 0 0 2 6 8 7 6 5 4 3 2 2 1 1 1 1 1 1 0 0 0 0 0 0 0 0
0 0 0 0 0 0 0 0 0 0 0 0 0 0 0 0 0 0 0 0 1 4 6 6 6 5 4 3 2 2 2 2 1 1 1 1 0 0 0 0 0 0 0 0
0 0 0 0 0 0 0 0 0 0 0 0 0 0 0 0 0 0 0 0 1 2 3 5 5 5 4 3 2 2 2 2 1 1 0 0 0 0 0 0 0 0 0 0
0 0 0 0 0 0 0 0 0 0 0 0 0 0 0 0 0 0 0 0 0 0 1 2 4 4 4 3 2 2 1 1 1 1 0 0 0 0 0 0 0 0 0 0
0 0 0 0 0 0 0 0 0 0 0 0 0 0 0 0 0 0 0 0 0 0 0 1 2 3 3 3 2 2 1 1 1 1 0 0 0 0 0 0 0 0 0 0
0 0 0 0 0 0 0 0 0 0 0 0 0 0 0 0 0 0 0 0 0 0 0 0 1 2 3 3 2 2 1 1 1 1 0 0 0 0 0 0 0 0 0 0
0 0 0 0 0 0 0 0 0 0 0 0 0 0 0 0 0 0 0 0 0 0 0 0 0 1 2 2 2 2 2 1 1 1 1 1 1 0 0 0 0 0 0 0
0 0 0 0 0 0 0 0 0 0 0 0 0 0 0 0 0 0 0 0 0 0 0 0 0 1 1 2 2 2 2 1 1 1 1 1 1 1 0 0 0 0 0 0
0 0 0 0 0 0 0 0 0 0 0 0 0 0 0 0 0 0 0 0 0 0 0 0 0 0 1 1 2 2 1 1 1 1 1 1 1 1 0 0 0 0 0 0
0 0 0 0 0 0 0 0 0 0 0 0 0 0 0 0 0 0 0 0 0 0 0 0 0 0 0 1 1 1 1 1 1 1 1 1 1 0 0 0 0 0 0 0
0 0 0 0 0 0 0 0 0 0 0 0 0 0 0 0 0 0 0 0 0 0 0 0 0 0 0 0 0 0 0 0 0 0 0 0 0 0 0 0 0 0 0 0
0 0 0 0 0 0 0 0 0 0 0 0 0 0 0 0 0 0 0 0 0 0 0 0 0 0 0 0 0 0 0 0 0 0 0 0 0 0 0 0 0 0 0 0
0 0 0 0 0 0 0 0 0 0 0 0 0 0 0 0 0 0 0 0 0 0 0 0 0 0 0 0 0 0 0 0 0 0 0 0 0 0 0 0 0 0 0 0
Wind_Speed
2 4 1 5 6 4 3 3 3 5 4 4 6 6 6 6 5 6 6 6 6 7 6 5 5 6 6 5 4 4 5 4 4 3 2 2 1 1 1 1 2 2 2 2
4 2 5 4 3 2 3 2 2 2 3 3 4 6 6 7 8 8 9 9 8 6 4 5 5 5 6 6 5 4 5 4 4 3 3 2 2 1 1 0 1 2 2 2
4 5 3 1 1 1 2 4 4 3 0 0 1 3 4 4 4 5 6 7 8 9 9 8 7 6 6 6 6 6 5 5 4 4 3 2 2 2 2 2 1 1 1 2
2 3 1 0 2 2 3 4 3 3 2 2 2 3 6 4 3 5 6 5 6 7 8 8 8 7 7 7 6 6 5 5 4 5 4 5 3 2 1 1 0 0 1 1
2 1 1 1 4 2 4 3 2 2 2 1 1 2 6 2 4 7 7 7 7 8 9 9 9 9 8 7 6 6 5 4 4 5 5 5 3 2 1 0 1 1 1 1
2 2 2 3 3 2 1 3 4 4 3 2 4 4 6 4 7 7 7 7 7 8 8 8 8 7 6 6 5 5 5 4 5 5 5 5 4 3 2 1 1 0 1 1
5 4 3 0 2 4 4 5 3 3 2 5 3 3 7 7 6 8 8 8 7 7 8 7 7 7 7 7 6 5 6 5 5 5 5 5 5 5 4 3 2 1 0 1
1 5 4 1 2 2 1 6 5 4 4 4 2 4 6 6 4 4 5 5 6 7 7 8 9 9 9 8 7 7 7 5 5 5 5 4 4 3 3 3 3 3 2 2
2 5 5 3 1 4 2 2 4 4 1 2 4 5 6 2 1 0 2 3 5 7 7 8 9 9 9 9 8 8 8 6 6 6 5 4 4 3 3 3 3 2 2 1
3 3 4 3 2 1 4 4 4 3 1 3 4 4 4 4 4 3 3 4 5 6 6 7 8 8 8 8 7 7 7 7 6 6 5 4 4 4 3 3 3 2 2 1
2 2 4 3 1 2 1 2 3 3 3 3 3 6 4 5 5 5 6 6 6 6 6 6 7 7 7 6 6 6 6 5 5 5 4 4 4 4 3 3 3 3 2 2
1 4 2 5 4 2 3 4 5 3 3 3 3 8 5 3 4 4 4 4 6 6 5 5 6 6 6 6 6 6 6 6 5 5 4 4 4 3 3 3 3 3 2 2
2 4 1 6 6 4 0 1 3 4 3 3 3 8 5 3 3 2 3 3 4 5 4 4 4 6 6 7 7 6 6 6 5 5 4 3 3 3 3 3 2 2 2 2
3 3 5 6 5 3 3 3 2 4 3 4 7 8 7 6 5 4 3 3 3 4 4 4 4 5 5 6 6 6 5 5 5 4 4 4 4 4 4 3 2 2 2 2
3 2 4 6 6 4 4 5 5 6 7 7 8 8 8 7 6 4 3 1 2 3 4 5 5 5 5 4 4 5 5 4 5 5 5 4 4 3 3 2 2 2 2 2
2 2 2 3 3 4 5 6 5 6 6 7 6 7 6 5 3 2 2 2 2 3 4 5 5 5 5 5 5 4 5 5 5 5 5 4 4 3 3 3 3 2 2 2
0 2 1 4 4 4 5 5 4 3 3 4 6 7 5 3 3 4 3 3 4 4 4 4 6 6 6 6 6 6 6 4 5 5 4 4 4 4 3 3 3 2 2 2
4 2 2 2 1 6 7 4 3 3 3 2 3 4 4 4 4 3 2 3 3 3 3 3 4 5 5 4 4 4 4 4 5 5 5 4 5 4 3 3 3 2 2 2
5 5 3 2 3 7 6 4 2 3 3 3 2 3 2 1 2 3 3 2 3 3 3 4 4 4 4 4 5 5 4 4 4 5 5 5 5 5 4 4 3 2 2 2
2 3 3 3 4 6 6 5 4 1 3 5 2 2 2 2 2 4 4 2 1 1 1 2 2 2 3 3 5 6 5 5 5 5 5 5 5 6 5 4 3 2 2 2
1 0 2 4 5 7 5 4 2 2 6 5 2 2 1 1 4 5 3 2 1 0 1 2 3 2 2 3 5 5 5 5 5 4 4 4 5 5 5 4 2 2 2 2
4 3 3 3 4 7 3 2 2 5 4 3 2 2 1 2 2 2 2 2 2 1 1 2 3 2 1 3 5 4 4 4 3 3 4 4 4 4 4 4 3 2 3 2
4 5 4 6 6 4 1 1 2 1 1 2 2 3 1 1 2 2 2 2 2 1 1 1 2 2 1 2 4 4 3 3 4 4 4 4 3 3 4 4 3 2 2 2
3 0 1 3 4 3 3 3 3 2 2 2 2 2 1 1 2 2 2 2 2 1 1 1 2 2 1 1 2 3 3 3 4 4 4 4 4 3 3 2 3 3 2 2
5 2 2 4 6 4 4 3 3 4 3 3 3 2 1 1 2 2 2 2 2 1 1 1 2 2 2 2 2 2 2 3 3 4 3 3 3 4 3 2 2 3 3 3
4 5 5 6 5 3 5 4 3 3 4 3 3 3 3 1 2 2 2 2 2 1 1 1 1 1 1 1 2 2 2 3 4 3 3 3 3 3 3 2 1 1 1 1
Wind_Direction
20 70 184 221 206 202 196 192 222 234 212 171 200 221 223 204 190 191 196 195 196 200 194 171 165 150 139 135 137 142 140 140 128 118 112 102 87 64 57 73 84 74 67 70
36 300 248 239 235 221 192 196 232 257 221 178 207 230 224 207 203 198 197 197 198 195 174 166 163 151 149 151 153 148 149 149 150 148 149 146 141 134 123 82 61 70 80 80
176 243 262 217 243 190 239 201 213 218 299 154 134 291 255 242 221 211 206 197 194 188 183 178 170 166 161 164 168 163 167 159 152 138 116 92 68 50 40 33 32 24 89 85
234 272 339 332 270 182 257 237 200 190 130 255 182 258 270 236 228 219 216 203 198 191 182 177 172 171 174 177 172 164 166 162 157 146 137 135 135 154 203 201 181 356 60 81
263 256 94 272 268 217 223 236 205 200 175 286 254 199 277 228 231 239 228 213 202 191 180 178 178 177 178 174 169 164 159 158 158 156 155 150 145 164 162 112 94 41 14 39
259 257 195 224 266 242 216 36 32 44 73 280 238 191 267 229 218 225 223 215 204 190 184 182 180 169 168 166 162 157 156 161 162 163 165 161 160 158 144 144 145 349 330 325
329 319 312 326 8 351 60 78 30 353 353 255 239 194 249 247 223 210 208 207 201 186 180 179 175 171 169 168 165 163 163 171 173 168 173 175 175 172 177 180 177 172 215 261
322 298 293 283 174 205 191 136 157 204 233 275 311 234 255 265 240 211 197 190 186 183 182 184 184 181 178 176 172 171 172 176 177 178 185 184 178 177 185 184 177 187 202 214
198 266 289 278 212 144 140 168 175 153 239 271 283 286 298 311 347 86 171 179 191 191 187 188 186 183 181 178 179 178 177 179 183 185 184 183 178 177 181 181 176 187 205 195
176 253 294 312 34 27 148 151 85 109 190 261 283 267 254 257 247 227 204 203 207 192 189 190 187 186 183 182 179 176 178 184 187 185 185 182 182 180 177 171 174 182 194 180
118 170 301 349 213 227 100 103 120 135 166 174 259 269 236 228 233 220 218 205 195 191 194 195 192 186 178 174 173 176 181 180 186 185 184 177 180 177 171 174 183 181 178 173
147 130 246 266 270 215 165 170 146 157 236 195 210 266 283 250 240 217 225 216 195 188 188 187 186 177 172 176 180 185 184 183 190 184 177 177 176 170 171 180 184 173 172 183
103 107 28 334 333 352 343 198 168 153 150 184 208 264 301 327 303 249 223 223 204 187 181 176 175 178 181 181 183 187 187 187 187 177 170 169 173 170 178 186 181 171 167 170
102 128 172 206 230 245 264 264 207 152 181 225 230 256 291 302 288 280 256 228 205 188 176 174 185 188 190 186 183 183 188 184 177 171 170 176 183 182 183 180 171 163 156 158
90 184 223 237 240 230 249 259 238 212 209 215 243 246 263 266 262 254 238 220 172 188 186 184 191 195 190 186 186 183 182 178 170 164 171 181 180 169 155 148 146 138 134 135
62 204 254 276 262 277 279 276 256 238 230 232 250 260 266 270 273 267 234 184 187 212 205 193 190 189 192 191 188 185 183 179 167 167 176 170 163 155 148 145 136 122 115 117
173 155 188 268 289 329 282 261 241 234 233 210 232 250 273 287 269 243 233 212 207 214 210 199 191 191 195 196 188 187 188 177 167 168 167 163 160 155 153 143 126 129 137 120
172 160 170 251 324 249 248 261 238 228 256 257 250 257 250 238 245 243 225 209 222 217 203 206 202 196 195 187 181 173 163 162 166 168 168 165 158 155 148 142 146 152 145 139
179 172 171 178 234 267 284 291 277 231 269 322 304 301 297 276 17 336 300 246 224 212 204 202 201 191 178 174 168 152 151 155 161 174 177 173 163 158 157 160 167 160 144 146
112 136 155 176 211 240 255 282 293 112 269 310 316 302 303 52 35 286 303 297 274 239 198 183 162 142 157 170 155 149 158 162 178 187 187 177 167 164 168 170 165 157 149 157
8 42 188 204 228 255 267 297 31 147 261 287 282 278 312 210 226 261 296 316 316 288 145 130 127 138 169 161 148 154 163 184 195 185 175 170 167 166 165 158 153 145 138 130
198 202 214 188 219 257 296 59 152 234 265 284 291 284 287 279 299 324 343 338 341 357 102 127 126 131 149 149 148 155 177 192 180 167 163 165 168 164 150 146 148 149 147 146
204 201 200 196 218 246 241 200 249 228 252 271 275 282 279 318 308 319 329 329 319 300 175 145 136 131 126 153 152 159 186 176 160 154 161 168 165 159 152 154 156 153 156 161
283 246 170 269 273 289 306 316 331 328 292 290 288 286 282 265 263 278 296 303 302 304 246 153 129 130 142 170 154 162 170 163 152 156 166 168 162 160 155 158 164 165 174 178
253 257 245 262 280 303 322 325 324 329 334 334 331 320 296 288 285 264 256 255 257 266 268 173 168 170 187 181 169 162 157 151 150 156 162 166 166 166 164 166 179 183 200 191
217 203 205 237 246 235 263 280 307 316 312 310 323 331 324 304 288 284 265 248 227 213 205 180 159 161 190 181 184 178 165 158 156 157 166 167 164 166 163 154 111 29 143 160